Wind_Speed
9 8 8 8 8 8 8 8 8 8 9 9 10 10 11 13 14 15 16 17 18 18 18 18 19 18 19 19 19 20 20 20 20 20 20 21 21 21 20 19 19 19 19
11 11 10 10 10 11 11 10 10 11 11 11 12 13 14 15 15 16 17 18 19 19 20 20 19 19 20 20 21 21 21 22 22 22 22 22 22 22 21 20 20 20 20
13 13 13 13 13 13 13 13 13 13 13 14 15 16 16 16 17 18 19 19 20 20 20 20 20 20 21 22 22 22 23 23 23 23 23 23 23 23 22 22 22 21 21
15 15 15 15 15 15 15 15 15 16 17 17 17 17 17 18 18 19 20 20 20 20 20 21 22 23 24 24 24 24 24 24 24 25 25 24 24 24 24 23 23 23 23
17 17 17 17 17 17 17 17 17 18 18 18 18 18 19 19 20 21 21 21 22 22 23 23 24 24 24 25 24 24 25 26 26 26 25 25 25 24 24 25 24 24 24
20 20 20 20 19 19 18 18 18 19 18 18 19 20 20 21 22 23 23 24 24 24 24 25 25 25 25 25 26 26 26 27 27 27 26 27 27 26 26 26 25 25 24
21 21 21 21 20 20 20 19 20 21 21 20 20 21 21 22 24 25 25 25 26 26 26 26 27 27 26 27 27 28 28 28 28 28 28 28 27 27 26 26 26 26 25
22 22 22 22 22 23 23 23 23 23 22 22 22 22 23 25 26 27 27 27 27 28 28 28 28 28 27 27 28 28 29 29 29 29 29 29 28 28 27 27 27 27 26
24 24 24 24 26 25 25 25 25 25 25 25 26 26 27 27 28 28 29 28 29 29 29 29 30 30 30 30 30 30 30 30 30 31 30 29 29 28 27 27 27 27 27
27 27 27 28 29 28 28 28 29 29 28 28 29 29 29 29 30 31 31 31 31 31 31 31 31 31 31 31 31 30 30 30 31 32 31 30 29 28 28 27 27 27 28
31 31 31 32 32 32 32 32 32 32 32 31 31 31 31 32 33 33 32 32 32 32 32 32 32 33 32 32 31 31 31 31 32 32 32 32 30 29 28 28 28 28 29
33 33 34 34 34 34 34 35 35 35 34 34 33 33 33 33 33 34 33 33 33 33 33 33 32 32 32 32 32 32 32 32 32 33 32 31 30 29 29 29 29 30 30
36 36 37 37 37 37 37 37 38 37 37 36 35 34 34 33 33 33 34 34 33 34 34 33 33 32 32 32 32 32 33 33 33 33 32 31 30 30 29 30 30 30 30
38 38 38 38 39 39 40 40 39 39 38 37 36 36 35 34 34 34 34 35 34 34 34 33 33 32 33 33 33 33 33 33 33 32 32 31 31 31 31 31 32 32 32
38 39 38 38 39 40 40 40 40 39 38 37 37 37 37 37 37 37 36 37 35 34 34 34 33 33 33 33 33 33 33 33 33 32 32 32 32 32 31 31 31 31 32
39 39 39 39 39 39 39 39 39 39 39 39 39 39 39 38 38 38 38 37 36 36 35 35 35 34 34 34 34 34 34 34 34 34 33 33 32 31 31 31 31 31 31
40 40 40 40 40 40 40 40 40 40 40 40 40 39 39 39 39 39 39 38 37 37 36 36 35 35 35 35 35 35 35 35 35 35 34 33 32 31 31 31 31 31 31
42 42 41 41 41 40 40 40 39 39 40 39 39 39 39 39 39 39 40 39 39 38 37 37 36 36 36 37 37 37 37 36 35 34 33 33 32 31 31 32 31 31 31
41 40 40 40 39 38 38 38 38 38 39 39 38 39 38 38 39 40 40 39 38 38 37 38 38 38 38 38 38 38 37 36 35 33 33 32 32 32 32 31 32 31 31
40 39 38 38 38 38 37 37 38 39 39 39 38 39 39 38 38 39 39 38 39 39 39 39 39 38 38 37 37 37 36 36 34 33 33 32 32 33 33 32 32 32 32
37 37 37 37 37 37 37 36 37 37 38 38 38 39 39 39 39 39 38 38 39 39 39 39 38 37 37 37 36 36 36 35 34 34 33 32 32 33 33 33 33 33 33
36 36 35 35 35 35 35 35 35 36 36 36 37 37 37 38 37 37 37 38 38 38 38 38 37 36 36 36 35 35 35 35 34 33 32 32 33 33 33 33 33 33 33
35 35 34 34 34 34 34 34 34 34 35 35 36 36 36 36 36 36 36 37 37 37 37 36 36 35 35 35 36 35 35 34 33 32 32 32 32 33 33 32 33 33 33
33 33 33 33 33 33 33 33 34 34 35 35 35 35 35 35 36 36 36 36 36 36 35 35 35 35 35 35 35 34 34 33 32 32 31 32 32 32 32 32 32 32 32
29 30 30 30 30 31 32 32 33 34 34 34 34 34 35 36 36 36 36 36 35 35 34 34 34 34 34 33 33 33 32 31 31 31 31 32 31 31 31 31 31 31 31
27 26 26 27 28 29 30 30 31 32 33 33 34 34 34 34 35 35 34 35 35 34 34 33 33 32 32 33 32 32 32 31 31 31 31 32 32 31 31 31 31 30 30
Wind_Direction
260 267 275 281 288 291 288 285 283 285 288 291 296 301 304 307 309 311 312 312 312 313 314 311 310 311 311 310 309 309 308 306 305 305 304 304 304 302 297 295 296 296 293
261 264 270 276 283 289 287 282 282 284 286 289 294 298 300 301 304 305 308 310 309 309 310 311 309 311 312 311 309 307 306 306 305 305 302 302 302 303 298 295 293 293 291
262 263 267 275 280 285 285 284 282 286 287 288 290 293 295 297 300 304 307 309 308 308 307 309 309 309 310 309 306 305 304 305 303 303 301 300 300 300 298 295 292 290 290
263 264 268 275 280 281 282 283 282 286 287 286 287 288 292 294 297 301 303 304 306 307 306 305 306 306 307 308 306 304 303 303 302 301 301 300 299 298 297 294 291 288 288
263 264 268 273 277 279 280 280 282 286 286 285 286 287 291 294 295 299 302 302 303 303 302 303 303 303 304 305 305 304 303 302 301 300 298 298 297 296 295 294 292 290 287
262 266 267 270 275 280 278 277 280 282 283 284 284 289 291 292 296 298 300 300 300 300 300 301 302 301 301 302 302 302 301 300 300 298 296 295 295 292 292 292 290 289 287
263 266 270 270 273 277 275 276 277 280 281 284 284 288 292 293 294 296 297 298 298 298 297 298 299 299 299 300 300 300 298 297 297 295 295 295 293 291 291 290 288 287 286
266 268 270 269 271 275 274 275 277 279 280 281 283 286 290 292 292 293 294 295 296 296 296 296 297 298 298 299 299 298 297 295 294 295 294 294 291 290 289 289 287 286 284
266 269 271 272 272 273 275 275 275 276 278 282 284 287 289 290 290 291 293 294 296 296 295 297 298 298 297 298 298 298 297 294 293 294 294 291 290 287 286 286 286 285 284
266 268 270 272 272 273 276 274 274 275 277 280 283 285 286 287 288 289 291 293 294 295 296 296 296 297 297 297 298 298 297 294 292 292 292 290 289 286 284 283 284 284 284
264 266 270 273 274 276 275 275 275 276 278 280 283 283 284 286 286 287 289 290 292 293 293 294 294 293 295 295 295 296 296 295 294 293 293 290 287 284 282 281 282 283 283
266 268 271 272 273 274 276 276 276 278 279 280 281 283 285 286 286 286 288 290 291 292 293 294 293 293 294 295 295 295 295 295 295 293 294 290 287 283 280 280 282 282 282
266 268 270 272 272 272 274 275 276 276 277 278 279 282 284 285 286 286 286 288 291 292 293 294 293 294 295 295 295 295 295 295 295 293 292 291 287 285 283 283 283 282 281
268 270 271 271 272 272 273 274 274 274 275 276 278 281 283 284 284 285 286 288 288 290 291 292 293 295 295 296 295 295 295 295 295 293 292 290 288 286 286 284 283 282 282
268 270 271 271 271 271 271 273 272 272 272 274 277 280 281 282 284 286 287 288 288 288 289 290 292 294 295 295 295 295 295 295 293 292 293 291 288 287 286 285 284 282 281
268 269 270 272 273 272 272 273 273 272 273 274 276 278 280 282 283 285 286 287 287 287 288 289 290 292 294 294 295 295 295 294 293 291 291 291 288 286 286 285 284 282 281
267 268 270 271 273 274 274 273 272 273 274 276 277 278 280 281 282 283 285 285 284 285 286 288 289 290 292 293 294 295 296 294 293 291 290 290 287 285 284 284 284 282 281
267 268 270 271 272 273 274 273 272 273 274 275 275 277 279 280 280 281 283 283 284 285 286 287 287 288 289 291 292 293 294 294 293 291 290 289 287 285 283 282 282 282 281
268 269 270 271 271 272 273 273 272 273 275 275 276 277 278 280 281 281 283 283 284 285 285 285 286 287 288 289 290 292 293 293 292 291 289 288 286 283 282 282 282 282 282
269 269 270 270 270 271 272 273 274 275 274 275 277 278 279 280 282 283 283 284 284 285 286 286 286 286 287 289 290 291 292 291 289 289 289 288 287 284 283 283 282 281 281
269 270 270 270 271 271 272 274 275 275 274 275 275 276 277 280 282 283 284 284 285 285 285 285 286 286 286 288 289 290 290 289 288 288 287 286 287 287 285 283 282 281 280
269 269 271 273 272 272 273 274 274 274 274 275 276 276 278 280 282 283 283 284 284 284 284 285 285 285 286 287 288 289 288 288 288 287 285 284 285 286 285 282 282 282 281
272 271 271 271 272 272 272 273 273 273 274 277 277 278 279 281 282 284 284 284 284 284 283 284 285 285 286 287 288 287 287 287 286 285 284 284 284 285 285 284 282 282 281
272 273 273 272 272 272 272 272 272 273 275 277 278 279 280 282 284 285 285 285 285 284 284 285 285 286 287 288 288 287 286 286 286 284 284 284 284 285 284 284 284 283 283
274 276 276 274 272 272 272 272 273 274 276 278 279 281 283 283 284 284 285 284 285 284 284 286 286 286 287 286 286 286 285 285 285 284 285 286 286 285 285 285 286 285 284
276 277 277 276 275 273 275 277 277 277 277 278 280 282 283 284 285 285 284 284 284 285 286 285 284 284 283 283 284 285 284 283 283 284 285 285 285 283 283 284 284 286 287
Height
5899 5899 5899 5898 5897 5896 5895 5895 5894 5894 5893 5892 5892 5891 5890 5889 5888 5886 5885 5883 5881 5879 5877 5875 5873 5871 5869 5866 5864 5862 5860 5858 5856 5854 5851 5849 5846 5844 5842 5840 5839 5837 5835
5897 5897 5896 5896 5895 5894 5893 5893 5892 5891 5891 5890 5889 5888 5887 5886 5884 5883 5881 5879 5877 5875 5873 5871 5869 5867 5865 5862 5860 5858 5856 5854 5852 5849 5847 5844 5842 5839 5837 5835 5833 5832 5830
5894 5894 5894 5893 5893 5892 5891 5890 5889 5888 5887 5886 5886 5884 5883 5882 5881 5879 5877 5875 5873 5871 5869 5867 5865 5862 5860 5858 5855 5853 5851 5849 5846 5844 5842 5839 5837 5834 5832 5830 5828 5826 5825
5891 5891 5891 5890 5890 5889 5888 5886 5885 5884 5883 5882 5882 5881 5879 5878 5876 5875 5872 5870 5868 5866 5864 5862 5860 5858 5855 5853 5850 5848 5845 5843 5841 5838 5836 5834 5831 5829 5826 5824 5822 5820 5819
5887 5887 5887 5886 5885 5885 5884 5883 5881 5880 5879 5878 5877 5876 5875 5873 5872 5870 5868 5866 5864 5862 5860 5857 5855 5852 5850 5847 5845 5842 5840 5837 5835 5832 5830 5828 5825 5823 5821 5818 5816 5814 5813
5882 5882 5882 5881 5881 5880 5878 5877 5877 5876 5874 5873 5872 5871 5869 5868 5866 5865 5863 5861 5858 5856 5854 5852 5849 5847 5844 5841 5838 5835 5833 5831 5828 5826 5823 5821 5819 5816 5814 5812 5810 5808 5806
5877 5877 5876 5876 5875 5875 5873 5872 5871 5870 5869 5868 5866 5865 5864 5862 5861 5859 5857 5855 5853 5850 5848 5845 5843 5840 5838 5835 5832 5829 5826 5823 5821 5819 5816 5813 5811 5809 5807 5804 5802 5801 5799
5871 5871 5870 5870 5869 5869 5867 5866 5866 5864 5863 5862 5860 5859 5857 5856 5854 5852 5850 5848 5846 5843 5841 5838 5836 5833 5830 5828 5825 5822 5819 5816 5813 5811 5808 5806 5804 5801 5799 5797 5795 5793 5792
5865 5865 5864 5864 5863 5862 5861 5860 5859 5858 5856 5855 5854 5852 5850 5849 5847 5845 5842 5840 5838 5836 5833 5831 5828 5826 5823 5820 5817 5814 5811 5808 5805 5803 5800 5797 5795 5793 5791 5789 5787 5785 5784
5858 5858 5857 5857 5855 5854 5854 5852 5851 5850 5848 5847 5846 5844 5843 5840 5839 5837 5835 5833 5830 5828 5825 5822 5820 5817 5814 5811 5809 5806 5802 5799 5797 5794 5791 5789 5786 5784 5782 5780 5778 5777 5775
5850 5849 5849 5848 5847 5846 5845 5844 5843 5842 5840 5839 5837 5836 5834 5832 5830 5829 5827 5824 5822 5819 5817 5814 5811 5809 5806 5803 5800 5797 5794 5791 5788 5785 5782 5780 5777 5775 5773 5772 5770 5768 5767
5840 5840 5840 5839 5838 5837 5836 5835 5833 5832 5831 5830 5829 5827 5825 5823 5821 5820 5818 5816 5813 5811 5808 5805 5802 5800 5797 5794 5791 5788 5785 5782 5779 5776 5773 5770 5768 5766 5764 5763 5761 5759 5757
5830 5830 5830 5829 5828 5827 5826 5825 5824 5823 5822 5821 5819 5818 5816 5814 5813 5811 5809 5807 5804 5802 5799 5796 5793 5790 5788 5785 5782 5779 5776 5773 5770 5767 5764 5761 5759 5757 5755 5753 5752 5750 5748
5820 5820 5819 5818 5817 5816 5815 5814 5814 5813 5812 5811 5809 5808 5807 5805 5803 5801 5799 5797 5795 5792 5789 5786 5784 5781 5778 5776 5773 5770 5767 5764 5760 5757 5755 5752 5750 5748 5746 5744 5742 5740 5738
5809 5809 5808 5807 5806 5805 5804 5803 5803 5802 5801 5800 5799 5798 5797 5795 5793 5791 5789 5787 5785 5782 5779 5777 5774 5771 5769 5766 5763 5760 5757 5754 5751 5748 5745 5743 5740 5738 5736 5734 5731 5729 5728
5797 5797 5796 5796 5795 5794 5793 5792 5791 5791 5790 5789 5788 5787 5786 5784 5783 5781 5779 5776 5774 5771 5769 5767 5764 5761 5759 5756 5753 5750 5747 5744 5741 5738 5736 5733 5730 5728 5726 5724 5722 5720 5718
5785 5785 5784 5784 5783 5782 5781 5780 5780 5779 5778 5777 5776 5775 5774 5773 5771 5769 5767 5765 5762 5760 5758 5756 5753 5751 5748 5745 5743 5740 5737 5734 5731 5728 5725 5723 5720 5718 5716 5714 5712 5710 5709
5772 5772 5771 5771 5771 5770 5769 5768 5768 5767 5766 5765 5764 5763 5762 5761 5760 5758 5755 5753 5751 5749 5747 5745 5742 5740 5737 5735 5732 5729 5726 5723 5720 5717 5714 5712 5710 5708 5706 5705 5703 5701 5699
5759 5758 5758 5758 5758 5758 5757 5757 5756 5755 5754 5753 5752 5751 5750 5749 5747 5746 5743 5741 5739 5737 5735 5733 5731 5728 5726 5723 5720 5717 5714 5711 5708 5706 5704 5702 5700 5698 5696 5695 5693 5691 5689
5746 5746 5746 5746 5746 5746 5745 5745 5745 5744 5743 5742 5741 5740 5738 5737 5735 5733 5731 5729 5727 5725 5723 5721 5719 5716 5714 5711 5709 5706 5703 5700 5698 5695 5693 5691 5689 5687 5686 5684 5682 5681 5679
5735 5735 5735 5735 5734 5734 5733 5733 5733 5732 5731 5730 5729 5728 5727 5725 5724 5722 5719 5717 5715 5713 5711 5709 5707 5704 5702 5699 5697 5694 5692 5689 5686 5684 5682 5680 5678 5676 5675 5673 5671 5669 5668
5725 5724 5724 5724 5723 5723 5723 5722 5722 5721 5720 5719 5718 5717 5715 5713 5712 5710 5708 5705 5703 5701 5699 5697 5694 5692 5690 5688 5685 5683 5680 5678 5675 5673 5671 5669 5667 5665 5664 5662 5660 5658 5656
5714 5714 5713 5713 5713 5713 5712 5712 5711 5710 5710 5709 5707 5706 5704 5702 5700 5698 5696 5694 5691 5689 5687 5685 5683 5680 5678 5676 5674 5671 5669 5666 5664 5662 5660 5658 5656 5654 5652 5650 5649 5647 5645
5704 5704 5703 5702 5702 5702 5701 5701 5700 5700 5699 5698 5696 5695 5693 5691 5689 5687 5684 5682 5680 5678 5675 5673 5671 5669 5666 5664 5662 5659 5657 5655 5653 5651 5649 5647 5645 5643 5641 5639 5637 5636 5634
5695 5694 5693 5692 5692 5692 5691 5691 5690 5689 5688 5686 5685 5683 5682 5680 5678 5675 5673 5671 5668 5666 5663 5661 5659 5657 5655 5652 5650 5648 5646 5644 5642 5640 5638 5636 5634 5632 5630 5628 5627 5625 5623
5686 5685 5685 5684 5683 5682 5682 5681 5680 5679 5677 5675 5674 5672 5670 5668 5666 5664 5661 5659 5656 5654 5652 5649 5647 5645 5643 5641 5639 5637 5636 5634 5632 5630 5627 5625 5623 5622 5620 5618 5616 5615 5612